Retour au catalogue

CZ-4C R/B

ActifSSO
NORAD 40879·ROCKET BODY·🇨🇳 China

Lancé Aug 27, 2015 depuis Taiyuan Satellite Launch Center

Loading…

Prochains Passages (prochaines 24 heures)

TLE

FraisSource: Space-Track

Époque: Sep 14, 2026, 11:27 UTC

1 40879U 15040B   26257.47739567 -.00000050  00000-0 -30314-5 0  9991
2 40879 100.5751  67.4552 0092790 238.8092 120.3908 13.33328528537867

Suivez CZ-4C R/B en temps réel avec AllMySat

Download on the App Store